SCP
0 0 0 0 0 0 0 0 0 0 0 0 0 0 0 0 0 0 0 0 0 0 0 -0 -0 -0 0 0 0 0 0 0 0 0 0 0 0 0 0 0 0 0 0 0 0 0 0
0 0 0 0 0 0 0 0 0 0 0 0 0 0 0 0 0 0 0 0 0 0 0 -0 -0 0 0 0 0 0 0 0 0 0 0 0 0 0 0 0 0 0 0 0 0 0 0
0 0 0 0 0 0 0 0 0 0 0 0 0 0 0 0 0 0 0 0 0 0 -0 0 0 0 0 0 0 0 0 0 0 0 0 0 -0 0 0 0 0 0 0 0 0 0 0
0 0 0 0 0 0 0 0 0 0 0 0 0 0 0 0 0 0 0 0 0 -0 0 0 0 0 0 0 0 0 0 0 0 0 0 -0 -0 0 0 0 0 0 0 0 0 0 0
0 0 0 0 0 0 0 0 0 0 0 0 0 0 0 0 0 0 0 0 0 0 0 0 0 0 0 0 0 0 0 0 0 0 0 -0 -0 0 0 0 0 0 0 0 0 0 0
0 0 0 0 0 0 0 0 0 0 0 0 0 0 0 0 0 0 0 0 0 0 0 0 0 0 0 0 0 0 0 0 0 0 0 0 -0 -0 -0 0 0 0 0 0 0 0 0
0 0 0 0 0 0 0 0 0 0 0 0 0 0 0 0 0 0 0 0 0 0 0 0 0 0 0 0 0 0 0 0 0 0 0 0 -0 -0 0 -0 -0 0 0 0 0 0 0
0 0 0 0 0 0 0 0 0 0 0 0 0 0 0 0 0 0 0 0 0 0 0 0 0 -0 -0 0 0 0 0 0 0 0 0 0 -0 -0 -0 -0 -0 -0 0 0 0 0 0
0 0 0 0 0 0 0 0 0 0 0 0 0 0 0 0 0 0 0 0 0 0 0 0 0 0 0 0 0 0 0 0 0 0 0 0 0 -0 -0 -0 -0 -0 0 0 0 0 0
0 0 0 0 0 0 0 0 0 0 0 0 0 0 0 0 0 0 0 0 0 0 0 0 0 0 0 0 0 0 0 0 0 0 0 0 0 0 -0 -0 -0 -0 -0 0 0 0 0
0 0 0 0 0 0 0 0 0 0 0 0 0 0 0 0 0 0 0 0 0 0 0 0 0 0 0 0 0 0 -0 0 0 0 0 0 0 0 0 0 -0 -0 0 0 0 0 0
0 0 0 0 0 0 0 0 0 0 0 0 0 0 0 0 0 0 0 0 0 0 0 0 0 0 0 0 0 0 0 0 0 0 0 0 0 0 0 0 0 0 0 0 0 0 0
0 0 0 0 0 0 0 0 0 0 0 0 -0 -0 0 0 0 0 0 0 0 0 0 0 0 0 0 0 0 0 0 0 0 0 0 0 0 0 0 0 0 0 0 0 0 0 0
0 0 0 0 0 0 0 0 0 0 0 0 0 0 0 0 0 0 0 0 0 0 0 0 0 0 0 0 0 0 0 0 0 0 0 0 0 0 0 0 0 0 0 0 0 0 0
0 0 0 0 0 0 0 0 0 0 0 0 0 0 0 0 0 0 0 0 0 0 0 0 0 0 0 0 0 0 -0 -0 -0 0 0 0 0 0 0 0 0 0 0 0 0 0 0
0 0 0 0 0 0 0 0 0 0 0 0 0 0 0 0 0 0 0 0 0 0 0 0 0 0 0 0 0 0 0 -0 0 0 0 0 0 0 0 0 0 0 0 0 0 0 0
0 0 0 0 0 0 0 0 0 0 0 0 0 0 0 0 0 0 0 0 0 0 0 0 -0 0 0 0 0 0 0 0 0 0 0 0 0 0 0 0 0 0 0 0 0 0 0
0 0 0 0 0 0 0 0 0 0 0 0 -0 0 0 0 0 0 0 0 0 0 0 0 -0 -0 0 0 0 0 0 0 0 0 0 0 0 0 0 0 0 0 0 0 0 0 0
0 0 0 0 0 0 0 0 0 0 0 0 -0 0 0 0 0 0 0 0 0 0 0 0 0 0 0 0 0 0 0 0 0 0 0 0 0 0 0 0 0 0 0 0 0 0 0
0 0 0 0 0 0 0 0 0 0 0 0 -0 -0 0 0 0 0 0 0 0 0 0 0 0 0 0 0 0 0 0 0 0 0 0 0 0 0 0 0 0 0 0 0 0 0 0
0 0 0 0 0 0 0 0 0 0 0 0 0 -0 0 0 0 0 0 0 0 0 0 0 0 0 0 0 0 0 0 0 0 0 0 0 0 0 0 0 0 0 0 0 0 0 0
0 0 0 0 0 0 0 0 0 0 0 0 0 0 0 0 0 0 0 -0 0 0 0 0 0 0 0 0 0 0 0 0 0 0 0 0 0 0 0 0 0 0 0 0 0 0 0
0 0 0 0 0 0 0 0 0 0 0 0 0 0 0 0 0 0 0 0 0 0 0 0 0 0 0 0 0 0 0 0 0 0 0 0 0 0 0 0 0 0 0 0 0 0 0
0 0 0 0 0 0 0 0 0 0 0 0 0 0 0 0 0 0 0 0 0 0 0 0 0 0 0 0 0 0 0 0 0 0 0 0 0 0 0 0 0 0 0 0 0 0 0
0 0 0 0 0 0 0 0 0 0 0 0 -0 -0 0 0 0 0 0 0 0 0 0 0 -0 -0 0 0 0 0 0 0 0 0 0 0 0 0 0 0 0 0 0 0 0 0 0
0 0 0 0 0 0 0 0 0 0 -0 -0 -0 -0 -0 -0 -0 0 0 0 0 0 0 0 0 0 -0 0 0 0 0 0 0 0 0 0 0 0 0 0 0 0 0 0 0 0 0
0 0 0 0 0 0 0 0 -0 0 -0 -0 0 0 -0 0 0 0 0 0 -0 0 0 0 0 0 0 0 0 0 0 0 0 0 0 0 0 0 0 0 0 0 0 0 0 0 0
0 0 0 0 0 -0 -0 -0 -0 0 -0 -0 0 -0 -0 0 0 0 0 0 0 0 0 0 0 0 0 0 0 0 0 0 0 0 0 0 0 0 0 0 0 0 0 0 0 0 0
0 0 0 0 0 -0 0 -0 -0 -0 -0 0 -0 -0 -0 -0 0 0 0 0 0 0 0 0 0 0 0 0 0 0 0 0 0 0 0 0 0 0 0 0 0 0 0 0 0 0 0
Wind_Speed_500mb
37 33 34 35 37 38 41 41 43 41 40 38 36 38 41 43 45 46 48 48 47 48 46 47 47 35 30 20 50 30 34 26 23 25 37 41 36 36 31 29 29 29 28 11 33 39 12
34 37 35 36 40 42 42 44 43 43 42 42 41 42 44 46 46 46 48 49 47 48 46 48 42 21 23 17 22 15 10 13 21 28 44 51 27 32 28 15 38 20 38 43 18 35 26
31 35 40 43 43 43 44 45 44 45 45 45 45 46 47 48 49 47 46 45 45 46 50 46 33 22 27 53 22 22 18 15 15 24 48 49 22 36 26 24 21 50 28 29 54 22 28
37 41 43 46 48 49 49 49 49 46 45 45 46 46 47 48 47 47 43 46 48 54 39 28 21 24 26 18 25 35 27 18 2 21 34 49 24 30 10 11 8 27 26 32 36 35 17
39 43 47 50 54 55 54 52 51 49 48 48 48 48 48 49 49 45 46 49 51 26 14 14 23 20 26 18 30 25 23 10 30 30 19 30 21 31 12 11 7 12 33 40 39 32 33
47 49 52 54 54 55 55 55 54 53 51 51 51 50 48 50 49 47 52 49 13 0 12 20 8 11 28 9 11 21 32 26 38 43 22 21 20 12 19 16 23 16 22 20 43 30 43
50 54 56 57 57 58 57 56 57 56 53 53 50 48 46 49 50 50 52 13 7 8 28 31 25 15 7 10 9 24 47 39 33 31 22 18 22 28 32 31 26 27 18 30 33 43 35
47 49 53 54 55 57 55 53 58 60 61 60 59 54 52 50 52 55 34 12 12 9 24 45 61 54 45 15 2 27 52 22 22 27 23 13 31 28 28 28 26 26 32 21 9 26 31
49 48 50 52 54 57 58 56 65 69 68 65 61 55 53 52 51 38 15 14 15 18 12 20 48 43 49 44 25 41 63 25 30 28 34 18 9 32 22 22 26 31 28 21 11 9 18
52 52 50 52 55 57 61 67 69 68 68 64 62 58 50 56 34 17 35 14 15 19 10 11 15 20 31 27 17 39 68 35 11 32 25 16 18 19 25 30 28 33 29 30 18 9 14
55 56 58 56 57 61 66 69 67 63 63 63 60 57 49 43 54 49 20 15 16 5 12 6 9 8 28 36 26 30 64 36 25 17 15 19 24 21 20 33 33 33 23 29 28 19 8
57 57 58 59 59 62 65 64 61 62 62 65 63 60 60 56 53 36 25 21 7 7 15 6 12 18 22 19 12 25 40 29 29 15 7 20 7 11 9 13 28 10 10 9 5 11 19
56 58 58 56 55 56 62 66 63 64 66 69 68 67 63 49 55 16 10 24 8 10 14 9 11 17 29 21 19 19 28 34 27 24 21 9 18 10 8 13 11 13 16 12 15 14 13
58 60 59 55 50 55 66 66 63 61 67 72 71 69 68 48 31 35 19 10 21 21 27 19 4 12 26 21 26 21 32 35 26 29 16 20 18 18 17 21 15 15 14 14 24 15 16
58 60 60 54 51 56 65 63 63 63 68 71 73 66 56 16 20 36 20 22 19 23 9 10 1 10 19 20 18 22 33 38 36 28 15 20 19 6 12 8 11 12 10 5 11 3 8
58 58 59 55 58 60 60 60 62 62 63 65 69 62 23 34 15 40 14 36 24 18 5 8 12 7 29 26 17 29 27 24 21 28 20 11 8 5 7 9 13 10 18 8 5 12 16
59 58 58 58 56 56 55 57 61 62 56 56 51 28 28 14 31 19 21 35 22 33 21 12 4 8 20 15 18 27 30 7 17 13 13 10 6 7 4 2 10 10 9 8 7 2 11
59 60 57 52 51 51 51 57 60 54 48 52 23 10 4 3 6 8 17 21 13 23 41 22 15 21 16 10 6 7 8 5 6 21 17 4 5 9 5 7 7 3 4 6 8 10 2
60 59 56 52 51 50 52 55 59 45 36 51 31 17 4 8 7 9 10 25 34 29 25 11 16 9 9 7 5 11 15 7 10 7 24 15 5 4 6 5 5 3 4 7 8 3 18
56 56 55 50 48 49 49 50 54 40 29 36 13 8 9 3 2 7 13 18 17 25 12 6 8 9 7 11 7 12 10 8 9 12 22 23 10 10 9 7 6 9 12 11 4 6 8
53 53 53 56 54 48 48 46 45 45 23 24 7 7 7 9 12 22 10 7 31 11 13 2 1 3 17 9 5 9 9 14 15 4 8 4 10 9 15 10 7 8 16 14 14 7 10
50 48 51 54 55 51 47 43 41 43 23 14 8 8 12 20 21 17 4 7 13 13 10 10 5 9 11 10 7 8 6 4 6 7 7 6 8 8 6 8 4 7 12 14 15 14 17
51 47 45 52 55 54 49 45 38 30 27 13 18 22 18 13 8 12 8 16 12 18 13 17 14 9 19 14 11 4 4 19 13 7 6 5 11 7 8 3 3 12 21 24 11 9 14
52 49 47 45 51 51 51 42 36 28 26 25 32 33 12 6 8 12 21 19 21 19 2 6 24 10 6 17 28 8 28 32 27 20 10 12 10 4 8 8 9 9 6 12 15 9 8
52 51 48 43 46 50 52 41 34 32 28 32 30 27 12 6 8 20 14 10 15 16 17 12 8 17 9 3 5 6 7 5 11 17 16 7 8 8 7 8 4 10 7 9 6 9 6
48 51 51 40 42 47 44 44 35 32 29 32 36 29 29 10 4 10 13 13 5 8 5 9 13 11 13 2 3 7 8 8 10 7 9 15 13 7 6 5 8 9 8 7 3 9 6
45 53 50 44 40 45 46 43 43 41 32 26 38 31 27 10 18 13 2 5 1 2 3 3 3 5 7 3 3 4 5 5 11 17 14 8 4 6 7 2 4 4 2 4 7 8 10
44 49 51 49 42 47 50 53 45 43 35 25 35 28 20 13 20 17 10 9 11 2 0 5 3 1 3 3 2 3 2 3 7 17 17 10 10 5 4 4 4 4 5 6 12 13 11
46 49 51 46 49 49 50 49 48 43 38 28 27 33 31 15 13 25 24 18 13 5 2 3 3 2 3 5 2 2 3 1 2 7 10 10 3 10 6 4 14 19 23 13 9 19 13
Wind_Direction_500mb
343 345 343 339 337 336 335 334 337 335 334 330 325 319 316 313 309 307 305 303 303 302 303 302 303 299 293 269 252 262 278 275 294 264 217 187 177 188 195 204 215 226 222 206 228 247 227
341 338 338 338 336 337 336 337 337 337 336 336 331 327 324 318 314 309 304 300 297 296 297 298 292 276 264 256 268 243 248 264 277 244 220 189 205 185 200 219 213 218 233 240 253 234 220
337 342 349 347 344 340 338 337 335 336 333 331 328 326 325 322 319 314 309 305 300 297 295 288 273 238 249 254 250 256 248 296 290 234 199 189 228 190 159 201 231 227 251 233 234 243 234
350 347 347 343 342 340 339 337 332 330 327 326 324 324 323 324 322 318 311 307 305 302 291 262 235 204 250 265 239 244 260 248 188 180 188 181 198 212 168 149 177 221 228 235 233 222 215
343 342 343 344 344 342 340 336 332 327 325 325 323 322 323 323 323 319 313 308 311 304 285 204 172 203 261 246 244 230 218 227 138 147 173 195 209 233 196 164 185 199 226 220 228 218 219
340 342 341 341 342 343 341 339 339 339 333 327 326 325 323 320 321 319 315 314 288 2 131 148 182 222 241 225 201 187 176 188 150 143 136 181 201 242 209 199 192 205 223 227 222 204 220
337 336 338 338 340 338 335 335 334 334 331 329 325 321 317 314 316 315 315 326 175 211 211 204 204 225 158 165 242 180 168 156 142 165 170 186 205 211 225 207 240 246 246 230 226 213 206
331 332 333 334 334 333 333 333 335 334 330 328 328 325 322 316 318 315 300 222 245 279 283 261 240 244 241 225 190 171 166 154 152 180 168 178 223 217 222 237 235 241 260 239 295 192 203
330 329 329 329 328 327 329 330 331 329 329 328 329 326 321 320 318 313 272 264 251 264 262 262 233 229 234 218 221 188 177 172 166 173 192 195 214 209 202 239 239 234 244 252 240 154 220
332 330 327 326 325 324 324 323 323 325 326 327 327 328 329 321 318 296 302 263 268 282 271 241 213 238 193 179 215 187 185 169 161 190 192 219 216 183 210 230 220 244 229 242 249 224 230
329 324 322 321 320 321 320 320 325 324 321 322 324 323 322 322 302 297 307 218 327 147 290 181 169 176 173 178 144 183 188 192 182 164 178 193 179 192 217 229 203 244 225 229 236 230 222
326 325 322 320 316 319 320 324 325 321 321 319 319 318 319 313 293 310 273 220 162 242 246 263 157 172 162 197 183 143 175 202 182 156 209 191 195 187 213 202 198 134 142 127 158 208 232
326 327 326 322 322 323 324 325 324 323 321 319 319 318 313 299 280 283 259 172 199 228 298 227 196 181 184 177 183 174 177 191 181 183 193 180 204 210 191 208 155 189 185 181 195 201 226
328 328 328 328 327 325 325 328 327 325 323 321 321 321 317 312 282 233 182 183 210 215 228 284 67 266 193 160 200 177 177 192 194 193 185 200 213 201 192 219 216 194 216 229 216 193 184
328 328 332 332 329 327 332 333 333 329 328 327 327 325 323 331 320 198 205 211 211 219 249 329 359 130 270 191 180 176 192 196 198 192 192 187 216 167 200 174 196 160 207 94 107 33 201
328 327 327 328 328 332 334 335 334 333 332 339 333 327 330 327 287 178 210 229 231 220 67 301 215 193 211 216 172 191 180 198 184 200 206 190 148 118 115 136 62 227 135 176 155 193 223
330 328 326 326 329 331 337 337 335 334 339 347 339 325 348 335 146 168 215 226 253 266 294 266 242 299 273 182 213 184 179 109 155 151 167 141 192 153 225 38 181 151 162 78 93 358 235
334 332 331 331 332 334 337 334 336 336 344 349 340 308 19 130 240 217 245 246 268 262 266 272 192 190 269 335 175 127 134 63 45 148 138 92 89 148 156 351 282 348 116 175 186 184 114
337 338 339 337 337 336 335 336 337 339 349 345 323 286 7 256 260 293 294 289 286 270 283 276 221 159 170 271 54 126 170 311 148 131 151 134 73 161 185 186 154 156 86 95 95 95 208
339 340 341 339 337 336 336 335 337 341 341 340 311 311 303 293 316 336 339 296 274 333 312 82 308 181 127 198 157 160 136 52 69 88 106 113 128 209 222 87 117 155 145 140 147 194 215
344 343 343 344 339 335 335 335 336 334 331 334 249 253 335 310 325 322 286 265 297 271 338 128 310 9 144 27 331 96 108 118 64 41 73 103 137 153 92 101 82 143 165 165 195 176 236
343 343 342 342 342 338 333 333 336 337 336 316 273 312 339 298 303 310 304 310 302 294 0 356 281 139 122 140 122 2 233 110 121 73 76 24 110 124 108 83 103 229 240 241 238 242 257
337 337 342 340 340 341 336 335 336 337 339 314 315 315 307 279 295 304 324 337 303 277 108 70 26 91 95 102 74 284 11 79 94 113 108 86 133 136 158 136 177 250 238 223 211 208 238
330 330 336 341 339 339 338 333 330 332 317 310 289 308 288 274 309 295 310 311 335 325 248 14 32 27 97 132 109 50 55 62 66 54 57 122 108 81 131 165 211 51 318 204 167 136 168
328 328 326 334 336 335 338 333 325 321 310 306 300 298 277 282 280 301 341 355 359 45 65 59 116 136 168 155 66 87 57 93 39 40 33 62 116 110 160 193 28 128 108 128 192 135 101
329 330 331 329 333 336 340 338 329 313 307 301 283 304 279 286 218 1 358 6 360 354 46 28 33 156 180 168 135 174 175 137 149 111 57 80 81 103 155 183 177 103 104 5 203 188 127
332 327 330 329 325 332 334 332 321 315 309 299 288 307 283 279 276 265 156 350 73 355 333 0 350 24 34 98 116 170 142 136 150 155 161 137 132 140 150 154 123 89 357 328 219 77 110
332 336 334 336 326 325 330 328 324 313 314 306 298 326 271 267 261 277 278 243 283 224 198 348 215 117 95 103 163 149 132 76 140 145 158 149 141 156 130 204 195 1 148 242 104 98 98
339 335 334 334 335 331 329 324 323 314 310 303 299 314 292 279 280 300 294 277 262 239 47 31 62 63 76 99 104 133 111 54 116 132 161 150 192 158 198 103 107 78 87 83 115 117 82
Wind_Speed_850mb
37 33 34 35 37 38 41 41 43 41 40 38 36 38 41 43 45 46 48 48 47 48 46 47 47 35 30 20 50 30 34 26 23 25 37 41 36 36 31 29 29 29 28 11 33 39 12
34 37 35 36 40 42 42 44 43 43 42 42 41 42 44 46 46 46 48 49 47 48 46 48 42 21 23 17 22 15 10 13 21 28 44 51 27 32 28 15 38 20 38 43 18 35 26
31 35 40 43 43 43 44 45 44 45 45 45 45 46 47 48 49 47 46 45 45 46 50 46 33 22 27 53 22 22 18 15 15 24 48 49 22 36 26 24 21 50 28 29 54 22 28
37 41 43 46 48 49 49 49 49 46 45 45 46 46 47 48 47 47 43 46 48 54 39 28 21 24 26 18 25 35 27 18 2 21 34 49 24 30 10 11 8 27 26 32 36 35 17
39 43 47 50 54 55 54 52 51 49 48 48 48 48 48 49 49 45 46 49 51 26 14 14 23 20 26 18 30 25 23 10 30 30 19 30 21 31 12 11 7 12 33 40 39 32 33
47 49 52 54 54 55 55 55 54 53 51 51 51 50 48 50 49 47 52 49 13 0 12 20 8 11 28 9 11 21 32 26 38 43 22 21 20 12 19 16 23 16 22 20 43 30 43
50 54 56 57 57 58 57 56 57 56 53 53 50 48 46 49 50 50 52 13 7 8 28 31 25 15 7 10 9 24 47 39 33 31 22 18 22 28 32 31 26 27 18 30 33 43 35
47 49 53 54 55 57 55 53 58 60 61 60 59 54 52 50 52 55 34 12 12 9 24 45 61 54 45 15 2 27 52 22 22 27 23 13 31 28 28 28 26 26 32 21 9 26 31
49 48 50 52 54 57 58 56 65 69 68 65 61 55 53 52 51 38 15 14 15 18 12 20 48 43 49 44 25 41 63 25 30 28 34 18 9 32 22 22 26 31 28 21 11 9 18
52 52 50 52 55 57 61 67 69 68 68 64 62 58 50 56 34 17 35 14 15 19 10 11 15 20 31 27 17 39 68 35 11 32 25 16 18 19 25 30 28 33 29 30 18 9 14
55 56 58 56 57 61 66 69 67 63 63 63 60 57 49 43 54 49 20 15 16 5 12 6 9 8 28 36 26 30 64 36 25 17 15 19 24 21 20 33 33 33 23 29 28 19 8
57 57 58 59 59 62 65 64 61 62 62 65 63 60 60 56 53 36 25 21 7 7 15 6 12 18 22 19 12 25 40 29 29 15 7 20 7 11 9 13 28 10 10 9 5 11 19
56 58 58 56 55 56 62 66 63 64 66 69 68 67 63 49 55 16 10 24 8 10 14 9 11 17 29 21 19 19 28 34 27 24 21 9 18 10 8 13 11 13 16 12 15 14 13
58 60 59 55 50 55 66 66 63 61 67 72 71 69 68 48 31 35 19 10 21 21 27 19 4 12 26 21 26 21 32 35 26 29 16 20 18 18 17 21 15 15 14 14 24 15 16
58 60 60 54 51 56 65 63 63 63 68 71 73 66 56 16 20 36 20 22 19 23 9 10 1 10 19 20 18 22 33 38 36 28 15 20 19 6 12 8 11 12 10 5 11 3 8
58 58 59 55 58 60 60 60 62 62 63 65 69 62 23 34 15 40 14 36 24 18 5 8 12 7 29 26 17 29 27 24 21 28 20 11 8 5 7 9 13 10 18 8 5 12 16
59 58 58 58 56 56 55 57 61 62 56 56 51 28 28 14 31 19 21 35 22 33 21 12 4 8 20 15 18 27 30 7 17 13 13 10 6 7 4 2 10 10 9 8 7 2 11
59 60 57 52 51 51 51 57 60 54 48 52 23 10 4 3 6 8 17 21 13 23 41 22 15 21 16 10 6 7 8 5 6 21 17 4 5 9 5 7 7 3 4 6 8 10 2
60 59 56 52 51 50 52 55 59 45 36 51 31 17 4 8 7 9 10 25 34 29 25 11 16 9 9 7 5 11 15 7 10 7 24 15 5 4 6 5 5 3 4 7 8 3 18
56 56 55 50 48 49 49 50 54 40 29 36 13 8 9 3 2 7 13 18 17 25 12 6 8 9 7 11 7 12 10 8 9 12 22 23 10 10 9 7 6 9 12 11 4 6 8
53 53 53 56 54 48 48 46 45 45 23 24 7 7 7 9 12 22 10 7 31 11 13 2 1 3 17 9 5 9 9 14 15 4 8 4 10 9 15 10 7 8 16 14 14 7 10
50 48 51 54 55 51 47 43 41 43 23 14 8 8 12 20 21 17 4 7 13 13 10 10 5 9 11 10 7 8 6 4 6 7 7 6 8 8 6 8 4 7 12 14 15 14 17
51 47 45 52 55 54 49 45 38 30 27 13 18 22 18 13 8 12 8 16 12 18 13 17 14 9 19 14 11 4 4 19 13 7 6 5 11 7 8 3 3 12 21 24 11 9 14
52 49 47 45 51 51 51 42 36 28 26 25 32 33 12 6 8 12 21 19 21 19 2 6 24 10 6 17 28 8 28 32 27 20 10 12 10 4 8 8 9 9 6 12 15 9 8
52 51 48 43 46 50 52 41 34 32 28 32 30 27 12 6 8 20 14 10 15 16 17 12 8 17 9 3 5 6 7 5 11 17 16 7 8 8 7 8 4 10 7 9 6 9 6
48 51 51 40 42 47 44 44 35 32 29 32 36 29 29 10 4 10 13 13 5 8 5 9 13 11 13 2 3 7 8 8 10 7 9 15 13 7 6 5 8 9 8 7 3 9 6
45 53 50 44 40 45 46 43 43 41 32 26 38 31 27 10 18 13 2 5 1 2 3 3 3 5 7 3 3 4 5 5 11 17 14 8 4 6 7 2 4 4 2 4 7 8 10
44 49 51 49 42 47 50 53 45 43 35 25 35 28 20 13 20 17 10 9 11 2 0 5 3 1 3 3 2 3 2 3 7 17 17 10 10 5 4 4 4 4 5 6 12 13 11
46 49 51 46 49 49 50 49 48 43 38 28 27 33 31 15 13 25 24 18 13 5 2 3 3 2 3 5 2 2 3 1 2 7 10 10 3 10 6 4 14 19 23 13 9 19 13
Wind_Direction_850mb
343 345 343 339 337 336 335 334 337 335 334 330 325 319 316 313 309 307 305 303 303 302 303 302 303 299 293 269 252 262 278 275 294 264 217 187 177 188 195 204 215 226 222 206 228 247 227
341 338 338 338 336 337 336 337 337 337 336 336 331 327 324 318 314 309 304 300 297 296 297 298 292 276 264 256 268 243 248 264 277 244 220 189 205 185 200 219 213 218 233 240 253 234 220
337 342 349 347 344 340 338 337 335 336 333 331 328 326 325 322 319 314 309 305 300 297 295 288 273 238 249 254 250 256 248 296 290 234 199 189 228 190 159 201 231 227 251 233 234 243 234
350 347 347 343 342 340 339 337 332 330 327 326 324 324 323 324 322 318 311 307 305 302 291 262 235 204 250 265 239 244 260 248 188 180 188 181 198 212 168 149 177 221 228 235 233 222 215
343 342 343 344 344 342 340 336 332 327 325 325 323 322 323 323 323 319 313 308 311 304 285 204 172 203 261 246 244 230 218 227 138 147 173 195 209 233 196 164 185 199 226 220 228 218 219
340 342 341 341 342 343 341 339 339 339 333 327 326 325 323 320 321 319 315 314 288 2 131 148 182 222 241 225 201 187 176 188 150 143 136 181 201 242 209 199 192 205 223 227 222 204 220
337 336 338 338 340 338 335 335 334 334 331 329 325 321 317 314 316 315 315 326 175 211 211 204 204 225 158 165 242 180 168 156 142 165 170 186 205 211 225 207 240 246 246 230 226 213 206
331 332 333 334 334 333 333 333 335 334 330 328 328 325 322 316 318 315 300 222 245 279 283 261 240 244 241 225 190 171 166 154 152 180 168 178 223 217 222 237 235 241 260 239 295 192 203
330 329 329 329 328 327 329 330 331 329 329 328 329 326 321 320 318 313 272 264 251 264 262 262 233 229 234 218 221 188 177 172 166 173 192 195 214 209 202 239 239 234 244 252 240 154 220
332 330 327 326 325 324 324 323 323 325 326 327 327 328 329 321 318 296 302 263 268 282 271 241 213 238 193 179 215 187 185 169 161 190 192 219 216 183 210 230 220 244 229 242 249 224 230
329 324 322 321 320 321 320 320 325 324 321 322 324 323 322 322 302 297 307 218 327 147 290 181 169 176 173 178 144 183 188 192 182 164 178 193 179 192 217 229 203 244 225 229 236 230 222
326 325 322 320 316 319 320 324 325 321 321 319 319 318 319 313 293 310 273 220 162 242 246 263 157 172 162 197 183 143 175 202 182 156 209 191 195 187 213 202 198 134 142 127 158 208 232
326 327 326 322 322 323 324 325 324 323 321 319 319 318 313 299 280 283 259 172 199 228 298 227 196 181 184 177 183 174 177 191 181 183 193 180 204 210 191 208 155 189 185 181 195 201 226
328 328 328 328 327 325 325 328 327 325 323 321 321 321 317 312 282 233 182 183 210 215 228 284 67 266 193 160 200 177 177 192 194 193 185 200 213 201 192 219 216 194 216 229 216 193 184
328 328 332 332 329 327 332 333 333 329 328 327 327 325 323 331 320 198 205 211 211 219 249 329 359 130 270 191 180 176 192 196 198 192 192 187 216 167 200 174 196 160 207 94 107 33 201
328 327 327 328 328 332 334 335 334 333 332 339 333 327 330 327 287 178 210 229 231 220 67 301 215 193 211 216 172 191 180 198 184 200 206 190 148 118 115 136 62 227 135 176 155 193 223
330 328 326 326 329 331 337 337 335 334 339 347 339 325 348 335 146 168 215 226 253 266 294 266 242 299 273 182 213 184 179 109 155 151 167 141 192 153 225 38 181 151 162 78 93 358 235
334 332 331 331 332 334 337 334 336 336 344 349 340 308 19 130 240 217 245 246 268 262 266 272 192 190 269 335 175 127 134 63 45 148 138 92 89 148 156 351 282 348 116 175 186 184 114
337 338 339 337 337 336 335 336 337 339 349 345 323 286 7 256 260 293 294 289 286 270 283 276 221 159 170 271 54 126 170 311 148 131 151 134 73 161 185 186 154 156 86 95 95 95 208
339 340 341 339 337 336 336 335 337 341 341 340 311 311 303 293 316 336 339 296 274 333 312 82 308 181 127 198 157 160 136 52 69 88 106 113 128 209 222 87 117 155 145 140 147 194 215
344 343 343 344 339 335 335 335 336 334 331 334 249 253 335 310 325 322 286 265 297 271 338 128 310 9 144 27 331 96 108 118 64 41 73 103 137 153 92 101 82 143 165 165 195 176 236
343 343 342 342 342 338 333 333 336 337 336 316 273 312 339 298 303 310 304 310 302 294 0 356 281 139 122 140 122 2 233 110 121 73 76 24 110 124 108 83 103 229 240 241 238 242 257
337 337 342 340 340 341 336 335 336 337 339 314 315 315 307 279 295 304 324 337 303 277 108 70 26 91 95 102 74 284 11 79 94 113 108 86 133 136 158 136 177 250 238 223 211 208 238
330 330 336 341 339 339 338 333 330 332 317 310 289 308 288 274 309 295 310 311 335 325 248 14 32 27 97 132 109 50 55 62 66 54 57 122 108 81 131 165 211 51 318 204 167 136 168
328 328 326 334 336 335 338 333 325 321 310 306 300 298 277 282 280 301 341 355 359 45 65 59 116 136 168 155 66 87 57 93 39 40 33 62 116 110 160 193 28 128 108 128 192 135 101
329 330 331 329 333 336 340 338 329 313 307 301 283 304 279 286 218 1 358 6 360 354 46 28 33 156 180 168 135 174 175 137 149 111 57 80 81 103 155 183 177 103 104 5 203 188 127
332 327 330 329 325 332 334 332 321 315 309 299 288 307 283 279 276 265 156 350 73 355 333 0 350 24 34 98 116 170 142 136 150 155 161 137 132 140 150 154 123 89 357 328 219 77 110
332 336 334 336 326 325 330 328 324 313 314 306 298 326 271 267 261 277 278 243 283 224 198 348 215 117 95 103 163 149 132 76 140 145 158 149 141 156 130 204 195 1 148 242 104 98 98
339 335 334 334 335 331 329 324 323 314 310 303 299 314 292 279 280 300 294 277 262 239 47 31 62 63 76 99 104 133 111 54 116 132 161 150 192 158 198 103 107 78 87 83 115 117 82